User: anonymous   Login
Location: Caltech
(34.1382°N, 118.1253°W)
Time: 17:16:11
(UTC-08:00)
Language:

Cosmos 1733 Rocket - Orbit

View from above orbital plane
View from above orbital plane
View from above satellite
View from above satellite

Ground track
Ground track

The orbit data is extracted from the following two-line orbital elements,

1 16612U 86018B   16036.60070237 +.00000230 +00000-0 +24684-4 0  9993
2 16612 082.5146 043.2443 0017696 000.6108 138.8640 14.84040395496555
Epoch (UTC): 05 February 2016 14:25:00
Eccentricity: 0.0017696
inclination: 82.5146°
perigee height: 604 km
apogee height: 629 km
right ascension of ascending node: 43.2443°
argument of perigee: 0.6108°
revolutions per day: 14.84040395
mean anomaly at epoch: 138.8640°
orbit number at epoch: 49655

The dashed part of the orbit path shows where the satellite is in the earth's shadow,  

DLR